Weather History for Prague, Czech Republic

Change the Weather History Date:

Sunday, December 1, 2013

  Actual Average Record
Temperature  
Mean Temperature 36 °F -  
Max Temperature 40 °F 35 °F 46 °F (2004)
Min Temperature 33 °F 26 °F 14 °F (2010)
Degree Days  
Heating Degree Days 28    
Moisture  
Dew Point 32 °F    
Average Humidity 84    
Maximum Humidity 93    
Minimum Humidity 65    
Precipitation  
Precipitation 0.00 in 0.03 in - ()
Sea Level Pressure  
Sea Level Pressure 30.28 in    
Wind  
Wind Speed 9 mph ()    
Max Wind Speed 16 mph    
Max Gust Speed -    
Visibility 6.4 miles    
Events Rain    
Averages and records for this station are not official NWS values.
T = Trace of Precipitation, MM = Missing Value Source: Averaged Metar Reports

Daily Weather History Graph

Daily Weather History Graph

Search for Another Location

Airport:

Trip Planner

Search our weather history database for the weather conditions in past years. The results will help you decide how hot, cold, wet, or windy it might be!

Date:

Astronomy

Dec. 01, 2013 Rise Set
Actual Time 7:40 AM CET 4:03 PM CET
Civil Twilight 7:02 AM CET 4:41 PM CET
Nautical Twilight 6:21 AM CET 5:21 PM CET
Astronomical Twilight 5:42 AM CET 6:00 PM CET
Moon 5:29 AM CET (12/1) 3:07 PM CET (12/1)
Length of Visible Light 9h 38m
Length of Day
8h 23m
Waning Crescent, 3% of the Moon is Illuminated
Dec 1
Waning Crescent
Dec 3
New
Dec 9
First Quarter
Dec 17
Full
Dec 25
Last Quarter

Hourly Weather History & Observations

Time (CET) Temp. Windchill Dew Point Humidity Pressure Visibility Wind Dir Wind Speed Gust Speed Precip Events Conditions
12:00 AM 35.6 °F 29.9 °F 32.0 °F 87% 30.24 in 6.2 mi WSW 6.9 mph - N/A   Mostly Cloudy
12:30 AM 33.8 °F 26.4 °F 32.0 °F 93% 30.24 in 6.2 mi WSW 9.2 mph - N/A   Scattered Clouds
1:00 AM 34 °F - 32 °F 90% 30.31 in 9 mi WSW 8.9 mph - -   Mostly Cloudy
1:00 AM 33.8 °F 27.0 °F 32.0 °F 93% 30.24 in 6.2 mi SW 8.1 mph - N/A   Mostly Cloudy
1:30 AM 35.6 °F 27.5 °F 32.0 °F 87% 30.24 in 6.2 mi SW 11.5 mph - N/A   Mostly Cloudy
2:00 AM 35.6 °F 28.0 °F 32.0 °F 87% 30.24 in 6.2 mi WSW 10.4 mph - N/A   Mostly Cloudy
2:30 AM 35.6 °F 28.6 °F 32.0 °F 87% 30.24 in 6.2 mi WSW 9.2 mph - N/A   Mostly Cloudy
3:00 AM 35.6 °F 28.6 °F 32.0 °F 87% 30.24 in 6.2 mi SW 9.2 mph - N/A   Mostly Cloudy
3:30 AM 35.6 °F 28.6 °F 32.0 °F 87% 30.24 in 6.2 mi WSW 9.2 mph - N/A   Mostly Cloudy
4:00 AM 35.6 °F 29.2 °F 32.0 °F 87% 30.24 in 6.2 mi WSW 8.1 mph - N/A   Mostly Cloudy
4:30 AM 35.6 °F 29.2 °F 32.0 °F 87% 30.24 in 6.2 mi SW 8.1 mph - N/A   Mostly Cloudy
5:00 AM 35.6 °F 28.6 °F 32.0 °F 87% 30.27 in 6.2 mi WSW 9.2 mph - N/A   Mostly Cloudy
5:30 AM 35.6 °F 28.6 °F 32.0 °F 87% 30.27 in 6.2 mi WSW 9.2 mph - N/A   Mostly Cloudy
6:00 AM 35.6 °F 28.6 °F 32.0 °F 87% 30.27 in 6.2 mi WSW 9.2 mph - N/A   Mostly Cloudy
6:30 AM 35.6 °F 29.2 °F 32.0 °F 87% 30.27 in 6.2 mi WSW 8.1 mph - N/A   Mostly Cloudy
7:00 AM 35 °F - 31 °F 82% 30.34 in 12 mi SW 8.9 mph - -   Mostly Cloudy
7:00 AM 35.6 °F 28.6 °F 32.0 °F 87% 30.27 in 6.2 mi SW 9.2 mph - N/A   Mostly Cloudy
7:30 AM 33.8 °F 26.4 °F 32.0 °F 93% 30.27 in 6.2 mi WSW 9.2 mph - N/A   Mostly Cloudy
8:00 AM 33.8 °F 27.0 °F 32.0 °F 93% 30.27 in 6.2 mi WSW 8.1 mph - N/A   Mostly Cloudy
8:30 AM 35.6 °F 29.9 °F 32.0 °F 87% 30.30 in 6.2 mi WSW 6.9 mph - N/A   Mostly Cloudy
9:00 AM 35.6 °F 27.5 °F 32.0 °F 87% 30.30 in 6.2 mi SW 11.5 mph - N/A   Mostly Cloudy
9:30 AM 35.6 °F 28.0 °F 32.0 °F 87% 30.30 in 6.2 mi SW 10.4 mph - N/A   Mostly Cloudy
10:00 AM 35.6 °F 28.0 °F 30.2 °F 81% 30.30 in 6.2 mi SW 10.4 mph - N/A   Scattered Clouds
10:30 AM 37.4 °F 28.5 °F 32.0 °F 81% 30.30 in 6.2 mi WSW 15.0 mph - N/A   Mostly Cloudy
11:00 AM 39.2 °F 31.6 °F 32.0 °F 75% 30.30 in 6.2 mi WSW 12.7 mph - N/A   Mostly Cloudy
11:30 AM 39.2 °F 32.5 °F 32.0 °F 75% 30.30 in 6.2 mi WSW 10.4 mph - N/A   Mostly Cloudy
12:00 PM 39.2 °F 31.6 °F 32.0 °F 75% 30.30 in 6.2 mi SW 12.7 mph - N/A   Mostly Cloudy
12:30 PM 39.2 °F 31.6 °F 32.0 °F 75% 30.30 in 6.2 mi SW 12.7 mph - N/A   Mostly Cloudy
1:00 PM 40 °F - 32 °F 65% 30.34 in 25 mi WSW 13.4 mph - -   Mostly Cloudy
1:00 PM 39.2 °F 32.0 °F 32.0 °F 75% 30.27 in 6.2 mi WSW 11.5 mph - N/A   Mostly Cloudy
1:30 PM 39.2 °F 31.6 °F 33.8 °F 81% 30.27 in 6.2 mi WSW 12.7 mph - N/A   Mostly Cloudy
2:00 PM 39.2 °F 32.0 °F 32.0 °F 75% 30.27 in 6.2 mi SW 11.5 mph - N/A   Mostly Cloudy
2:30 PM 39.2 °F 31.6 °F 32.0 °F 75% 30.27 in 6.2 mi SW 12.7 mph - N/A   Scattered Clouds
3:00 PM 39.2 °F 32.0 °F 32.0 °F 75% 30.27 in 6.2 mi WSW 11.5 mph - N/A   Scattered Clouds
3:30 PM 39.2 °F 32.0 °F 33.8 °F 81% 30.27 in 6.2 mi WSW 11.5 mph - N/A   Scattered Clouds
4:00 PM 39.2 °F 33.0 °F 32.0 °F 75% 30.27 in 6.2 mi WSW 9.2 mph - N/A   Mostly Cloudy
4:30 PM 39.2 °F 32.5 °F 32.0 °F 75% 30.27 in 6.2 mi WSW 10.4 mph - N/A   Mostly Cloudy
5:00 PM 39.2 °F 32.0 °F 32.0 °F 75% 30.27 in 6.2 mi WSW 11.5 mph - N/A   Mostly Cloudy
5:30 PM 37.4 °F 29.3 °F 32.0 °F 81% 30.27 in 6.2 mi WSW 12.7 mph - N/A   Mostly Cloudy
6:00 PM 37.4 °F 29.3 °F 32.0 °F 81% 30.27 in 6.2 mi WSW 12.7 mph - N/A   Mostly Cloudy
6:30 PM 37.4 °F 28.9 °F 33.8 °F 87% 30.27 in 6.2 mi WSW 13.8 mph - N/A   Mostly Cloudy
7:00 PM 38 °F - 33 °F 76% 30.35 in 25 mi WSW 15.7 mph - -   Overcast
7:00 PM 37.4 °F 28.5 °F 33.8 °F 87% 30.27 in 6.2 mi WSW 15.0 mph - N/A   Overcast
7:30 PM 37.4 °F 28.5 °F 33.8 °F 87% 30.27 in 6.2 mi WSW 15.0 mph - N/A   Mostly Cloudy
8:00 PM 37.4 °F 28.9 °F 33.8 °F 87% 30.30 in 6.2 mi WSW 13.8 mph - N/A   Mostly Cloudy
8:30 PM 35.6 °F 27.1 °F 33.8 °F 93% 30.30 in 6.2 mi WSW 12.7 mph - N/A Rain Light Rain
9:00 PM 37.4 °F 29.3 °F 33.8 °F 87% 30.30 in 6.2 mi WSW 12.7 mph - N/A Rain Light Rain
9:30 PM 37.4 °F 28.2 °F 33.8 °F 87% 30.30 in 6.2 mi WSW 16.1 mph - N/A Rain Light Rain
10:00 PM 37.4 °F 28.9 °F 33.8 °F 87% 30.30 in 6.2 mi WSW 13.8 mph - N/A Rain Light Rain
10:30 PM 37.4 °F 28.9 °F 33.8 °F 87% 30.30 in 6.2 mi WSW 13.8 mph - N/A Rain Light Rain
11:00 PM 37.4 °F 29.8 °F 33.8 °F 87% 30.33 in 6.2 mi WSW 11.5 mph - N/A   Overcast
11:30 PM 37.4 °F 29.8 °F 35.6 °F 93% 30.33 in 6.2 mi WSW 11.5 mph - N/A   Overcast